Hourly Data Report for August 26, 2019

TORONTO CITY
ONTARIO
Current Station Operator: ECCC - MSC

43°40'00.000" N
79°24'00.000" W
112.50 m
6158355
71508
XTO

Download Data

Hourly Data (August 2019)
Hourly Data Report for August 26, 2019
TIME
LST
Temp Definition
°C
Dew Point Definition
°C
Rel Hum Definition
%
Precip. Amount Definition
mm

Wind Dir Definition
10's deg

Wind Spd Definition
km/h
Visibility Definition
km
Stn Press Definition
kPa
Hmdx Definition


Wind Chill Definition


Weather Definition


00:00 19.7 15.8 78 0.0       100.93     LegendNANA
01:00 19.5 15.6 78 0.0       100.94     LegendNANA
02:00 18.9 15.3 80 0.0       100.91     LegendNANA
03:00 18.9 15.3 80 0.0       100.89     LegendNANA
04:00 18.8 15.2 80 0.0       100.84     LegendNANA
05:00 18.8 14.8 77 0.0       100.85     LegendNANA
06:00 18.8 14.7 77 0.0       100.88     LegendNANA
07:00 19.2 14.6 75 0.0       100.91     LegendNANA
08:00 20.6 14.1 66 0.0       100.90     LegendNANA
09:00 21.2 13.6 62 0.0       100.86     LegendNANA
10:00 21.7 12.5 56 0.0       100.81     LegendNANA
11:00 21.6 13.1 58 0.0       100.77     LegendNANA
12:00 22.2 13.4 58 0.0       100.72 25   LegendNANA
13:00 22.9 12.4 52 0.0       100.65 25   LegendNANA
14:00 23.3 11.3 47 0.0       100.56 25   LegendNANA
15:00 22.5 13.9 58 0.0       100.49 26   LegendNANA
16:00 21.8 12.6 56 0.0       100.43     LegendNANA
17:00 21.2 12.5 58 0.0       100.39     LegendNANA
18:00 20.8 12.4 59 0.0       100.35     LegendNANA
19:00 21.0 12.8 59 0.0       100.30     LegendNANA
20:00 20.9 13.7 63 0.0       100.29     LegendNANA
21:00 21.3 13.2 60 0.0       100.24     LegendNANA
22:00 21.2 12.5 58 0.0       100.17     LegendNANA
23:00 20.8 13.0 61 0.0       100.13     LegendNANA

Notes on Data Quality.

Legend

  • E = Estimated
  • M = Missing
  • NA = Not Available*
  • [empty] = Indicates an unobserved value
Date modified: